Kissimmee, FL

5:53 PM EST on November 15, 2019 (GMT -0500)
Kissimmee Municipal

Weather History for KISM - August, 2019

Change the Weather History Date:

Wednesday, August 14, 2019

  Actual Average Record
Temperature  
Mean Temperature 84 °F -  
Max Temperature 93 °F 90 °F 97 °F (1963)
Min Temperature 78 °F 72 °F 68 °F (1967)
Cooling Degree Days 20    
Growing Degree Days 34 (Base 50)    
Moisture  
Dew Point 77 °F    
Average Humidity 85    
Maximum Humidity 100    
Minimum Humidity 59    
Precipitation  
Precipitation 0.00 in - - ()
Sea Level Pressure  
Sea Level Pressure 29.97 in    
Wind  
Wind Speed 6 mph (SW)    
Max Wind Speed 24 mph    
Max Gust Speed 28 mph    
Visibility 10 miles    
Events Rain , Thunderstorm    
Averages and records for this station are not official NWS values.
T = Trace of Precipitation, MM = Missing Value Source: NWS Daily Summary

Daily Weather History Graph

Daily Weather History Graph

Search for Another Location

Airport or City:

Astronomy

Aug. 14, 2019 Rise Set
Actual Time 6:54 AM EDT 8:05 PM EDT
Civil Twilight 6:30 AM EDT 8:30 PM EDT
Nautical Twilight 6:00 AM EDT 8:59 PM EDT
Astronomical Twilight 5:30 AM EDT 9:29 PM EDT
Moon 7:52 PM EDT (8/14) 5:59 AM EDT (8/14)
Length of Visible Light 14h 00m
Length of Day
13h 10m
Waxing Gibbous, 99% of the Moon is Illuminated
Aug 14
Waxing Gibbous
Aug 15
Full
Aug 23
Last Quarter
Aug 30
New
Sep 5
First Quarter

Hourly Weather History & Observations

Time (EDT) Temp. Heat Index Dew Point Humidity Pressure Visibility Wind Dir Wind Speed Gust Speed Precip Events Conditions
12:24 AM 78.8 °F - 78.8 °F 100% 29.95 in 10.0 mi WSW 4.6 mph - N/A   Scattered Clouds
12:36 AM 78.8 °F - 78.8 °F 100% 29.95 in 10.0 mi WSW 6.9 mph - N/A   Mostly Cloudy
12:56 AM 79.0 °F - 78.1 °F 97% 29.95 in 10.0 mi SW 4.6 mph - N/A   Scattered Clouds
1:56 AM 79.0 °F - 78.1 °F 97% 29.94 in 10.0 mi SW 4.6 mph - N/A   Partly Cloudy
2:56 AM 79.0 °F - 78.1 °F 97% 29.94 in 10.0 mi South 4.6 mph - N/A   Clear
3:56 AM 78.1 °F - 78.1 °F 100% 29.94 in 10.0 mi Calm Calm - N/A   Clear
4:56 AM 78.1 °F - 78.1 °F 100% 29.96 in 10.0 mi South 3.5 mph - N/A   Mostly Cloudy
5:56 AM 78.1 °F - 78.1 °F 100% 29.97 in 8.0 mi South 3.5 mph - N/A   Mostly Cloudy
6:05 AM 78.8 °F - 78.8 °F 100% 29.97 in 8.0 mi South 4.6 mph - N/A   Mostly Cloudy
6:14 AM 78.8 °F - 78.8 °F 100% 29.96 in 6.0 mi South 5.8 mph - N/A   Mostly Cloudy
6:56 AM 79.0 °F - 78.1 °F 97% 29.99 in 6.0 mi SSW 3.5 mph - N/A   Overcast
7:56 AM 79.0 °F - 78.1 °F 97% 29.99 in 8.0 mi SW 3.5 mph - N/A   Mostly Cloudy
8:45 AM 80.6 °F 88.1 °F 78.8 °F 94% 29.99 in 10.0 mi SSW 4.6 mph - N/A   Overcast
8:52 AM 82.4 °F 92.4 °F 78.8 °F 89% 29.99 in 10.0 mi SW 6.9 mph - N/A   Overcast
8:56 AM 82.0 °F 91.6 °F 79.0 °F 90% 29.99 in 10.0 mi WSW 6.9 mph - N/A   Overcast
9:56 AM 86.0 °F 99.3 °F 79.0 °F 79% 30.00 in 10.0 mi West 10.4 mph - N/A   Scattered Clouds
10:56 AM 88.0 °F 103.1 °F 79.0 °F 75% 29.99 in 10.0 mi Variable 4.6 mph - N/A   Mostly Cloudy
11:40 AM 87.8 °F 99.7 °F 77.0 °F 70% 29.98 in 10.0 mi SW 11.5 mph - N/A   Mostly Cloudy
11:48 AM 87.8 °F 99.7 °F 77.0 °F 70% 29.98 in 10.0 mi SW 6.9 mph - N/A   Scattered Clouds
11:56 AM 89.1 °F 101.4 °F 77.0 °F 67% 29.98 in 10.0 mi SW 8.1 mph - N/A   Partly Cloudy
12:56 PM 91.9 °F 103.9 °F 75.9 °F 59% 29.97 in 10.0 mi SW 12.7 mph - N/A   Partly Cloudy
1:56 PM 88.0 °F 97.5 °F 75.0 °F 65% 29.96 in 10.0 mi SW 24.2 mph 27.6 mph N/A   Mostly Cloudy
2:04 PM 87.8 °F 97.6 °F 75.2 °F 66% 29.96 in 10.0 mi SW 17.3 mph - N/A Thunderstorm Scattered Clouds
2:56 PM 87.1 °F 95.4 °F 73.9 °F 65% 29.97 in 10.0 mi WSW 17.3 mph - N/A Thunderstorm Overcast
3:46 PM 84.2 °F 92.3 °F 75.2 °F 74% 29.96 in 10.0 mi SW 8.1 mph - N/A   Overcast
3:56 PM 84.9 °F 94.1 °F 75.9 °F 74% 29.96 in 10.0 mi SW 10.4 mph - N/A   Mostly Cloudy
4:04 PM 84.2 °F 92.3 °F 75.2 °F 74% 29.96 in 10.0 mi SW 6.9 mph - N/A Rain , Thunderstorm Light Rain
4:24 PM 84.2 °F 92.3 °F 75.2 °F 74% 29.95 in 10.0 mi WNW 3.5 mph - N/A   Clear
4:31 PM 84.2 °F 94.1 °F 77.0 °F 79% 29.94 in 10.0 mi WNW 4.6 mph - N/A Thunderstorm Clear
4:46 PM 84.2 °F 94.1 °F 77.0 °F 79% 29.94 in 10.0 mi NNE 4.6 mph - N/A   Clear
4:56 PM 82.9 °F 91.8 °F 77.0 °F 82% 29.95 in 10.0 mi ENE 5.8 mph - N/A   Clear
5:56 PM 81.0 °F 87.9 °F 77.0 °F 88% 29.92 in 10.0 mi SE 4.6 mph - N/A   Clear
6:56 PM 82.0 °F 91.0 °F 78.1 °F 88% 29.91 in 10.0 mi SSE 11.5 mph - N/A   Clear
7:37 PM 80.6 °F 87.1 °F 77.0 °F 89% 29.94 in 10.0 mi SSW 4.6 mph - N/A   Mostly Cloudy
7:44 PM 80.6 °F 87.1 °F 77.0 °F 89% 29.95 in 10.0 mi SSW 5.8 mph - N/A   Scattered Clouds
7:56 PM 81.0 °F 87.9 °F 77.0 °F 88% 29.97 in 10.0 mi SSW 4.6 mph - N/A   Partly Cloudy
8:56 PM 81.0 °F 87.9 °F 77.0 °F 88% 29.99 in 10.0 mi South 6.9 mph - N/A   Clear
9:56 PM 80.1 °F 85.8 °F 77.0 °F 90% 30.00 in 10.0 mi South 4.6 mph - N/A   Partly Cloudy
10:56 PM 80.1 °F 85.8 °F 77.0 °F 90% 30.01 in 10.0 mi South 9.2 mph - N/A   Overcast
11:56 PM 79.0 °F - 77.0 °F 94% 30.02 in 10.0 mi SSW 8.1 mph - N/A   Scattered Clouds